Time,TemperatureF,DewpointF,PressureIn,WindDirection,WindDirectionDegrees,WindSpeedMPH,WindSpeedGustMPH,Humidity,HourlyPrecipIn,Conditions,Clouds,dailyrainin,SoftwareType,DateUTC
2013-08-29 00:04:00,65.1,-99.9,0.00,SSE,162,0.0,0.0,-99,0.00,NA,NA,-99.99,WeatherLink_script,2013-08-29 04:04:00,
2013-08-29 00:09:00,65.0,-99.9,0.00,South,176,0.0,0.0,-99,0.00,NA,NA,-99.99,WeatherLink_script,2013-08-29 04:09:00,
2013-08-29 00:14:00,65.0,-99.9,0.00,South,190,0.0,0.0,-99,0.00,NA,NA,-99.99,WeatherLink_script,2013-08-29 04:14:00,
2013-08-29 00:19:00,64.9,-99.9,0.00,South,188,0.0,0.0,-99,0.00,NA,NA,-99.99,WeatherLink_script,2013-08-29 04:19:00,
2013-08-29 00:24:00,64.5,-99.9,0.00,South,180,0.0,0.0,-99,0.00,NA,NA,-99.99,WeatherLink_script,2013-08-29 04:24:00,
2013-08-29 00:29:00,64.1,-99.9,0.00,SSE,162,0.0,0.0,-99,0.00,NA,NA,-99.99,WeatherLink_script,2013-08-29 04:29:00,
2013-08-29 00:34:00,63.8,-99.9,0.00,South,171,0.0,0.0,-99,0.00,NA,NA,-99.99,WeatherLink_script,2013-08-29 04:34:00,
2013-08-29 00:39:00,63.6,-99.9,0.00,SSW,194,0.0,0.0,-99,0.00,NA,NA,-99.99,WeatherLink_script,2013-08-29 04:39:00,
2013-08-29 00:44:00,63.3,-99.9,0.00,SSE,160,0.0,0.0,-99,0.00,NA,NA,-99.99,WeatherLink_script,2013-08-29 04:44:00,
2013-08-29 00:49:00,63.1,-99.9,0.00,South,182,0.0,0.0,-99,0.00,NA,NA,-99.99,WeatherLink_script,2013-08-29 04:49:00,
2013-08-29 00:54:00,63.0,-99.9,0.00,WSW,243,0.0,0.0,-99,0.00,NA,NA,-99.99,WeatherLink_script,2013-08-29 04:54:00,
2013-08-29 01:00:00,62.8,-99.9,0.00,SSE,163,0.0,0.0,-99,0.00,NA,NA,-99.99,WeatherLink_script,2013-08-29 05:00:00,
2013-08-29 01:05:00,62.5,-99.9,0.00,SE,138,0.0,0.0,-99,0.00,NA,NA,-99.99,WeatherLink_script,2013-08-29 05:05:00,
2013-08-29 01:10:00,62.6,-99.9,0.00,SW,236,0.0,0.0,-99,0.00,NA,NA,-99.99,WeatherLink_script,2013-08-29 05:10:00,
2013-08-29 01:15:00,62.4,-99.9,0.00,NNE,24,0.0,0.0,-99,0.00,NA,NA,-99.99,WeatherLink_script,2013-08-29 05:15:00,
2013-08-29 01:20:00,61.9,-99.9,0.00,South,179,0.0,0.0,-99,0.00,NA,NA,-99.99,WeatherLink_script,2013-08-29 05:20:00,
2013-08-29 01:25:00,61.8,-99.9,0.00,South,181,0.0,0.0,-99,0.00,NA,NA,-99.99,WeatherLink_script,2013-08-29 05:25:00,
2013-08-29 01:30:00,61.8,-99.9,0.00,SSE,167,0.0,0.0,-99,0.00,NA,NA,-99.99,WeatherLink_script,2013-08-29 05:30:00,
2013-08-29 01:35:00,61.5,-99.9,0.00,South,179,0.0,0.0,-99,0.00,NA,NA,-99.99,WeatherLink_script,2013-08-29 05:35:00,
2013-08-29 01:40:00,61.5,-99.9,0.00,SSW,199,0.0,0.0,-99,0.00,NA,NA,-99.99,WeatherLink_script,2013-08-29 05:40:00,
2013-08-29 01:45:00,61.4,-99.9,0.00,South,189,0.0,0.0,-99,0.00,NA,NA,-99.99,WeatherLink_script,2013-08-29 05:45:00,
2013-08-29 01:50:00,61.1,-99.9,0.00,ENE,65,0.0,0.0,-99,0.00,NA,NA,-99.99,WeatherLink_script,2013-08-29 05:50:00,
2013-08-29 01:55:00,60.6,-99.9,0.00,South,179,0.0,0.0,-99,0.00,NA,NA,-99.99,WeatherLink_script,2013-08-29 05:55:00,
2013-08-29 02:00:00,60.6,-99.9,0.00,NW,308,0.0,0.0,-99,0.00,NA,NA,-99.99,WeatherLink_script,2013-08-29 06:00:00,
2013-08-29 02:05:00,60.6,-99.9,0.00,SSW,202,0.0,0.0,-99,0.00,NA,NA,-99.99,WeatherLink_script,2013-08-29 06:05:00,
2013-08-29 02:10:00,60.5,-99.9,0.00,NNW,342,0.0,0.0,-99,0.00,NA,NA,-99.99,WeatherLink_script,2013-08-29 06:10:00,
2013-08-29 02:15:00,60.4,-99.9,0.00,South,180,0.0,0.0,-99,0.00,NA,NA,-99.99,WeatherLink_script,2013-08-29 06:15:00,
2013-08-29 02:20:00,60.2,-99.9,0.00,SSW,201,0.0,0.0,-99,0.00,NA,NA,-99.99,WeatherLink_script,2013-08-29 06:20:00,
2013-08-29 02:25:00,60.5,-99.9,0.00,SSE,160,0.0,0.0,-99,0.00,NA,NA,-99.99,WeatherLink_script,2013-08-29 06:25:00,
2013-08-29 02:30:00,60.0,-99.9,0.00,South,179,0.0,0.0,-99,0.00,NA,NA,-99.99,WeatherLink_script,2013-08-29 06:30:00,
2013-08-29 02:35:00,60.3,-99.9,0.00,SSW,198,0.0,0.0,-99,0.00,NA,NA,-99.99,WeatherLink_script,2013-08-29 06:35:00,
2013-08-29 02:40:00,60.0,-99.9,0.00,East,93,0.0,0.0,-99,0.00,NA,NA,-99.99,WeatherLink_script,2013-08-29 06:40:00,
2013-08-29 02:45:00,60.1,-99.9,0.00,South,183,0.0,0.0,-99,0.00,NA,NA,-99.99,WeatherLink_script,2013-08-29 06:45:00,
2013-08-29 02:50:00,59.8,-99.9,0.00,SE,138,0.0,0.0,-99,0.00,NA,NA,-99.99,WeatherLink_script,2013-08-29 06:50:00,
2013-08-29 02:55:00,59.1,-99.9,0.00,NW,318,0.0,0.0,-99,0.00,NA,NA,-99.99,WeatherLink_script,2013-08-29 06:55:00,
2013-08-29 03:00:00,58.4,-99.9,0.00,NNE,25,0.0,0.0,-99,0.00,NA,NA,-99.99,WeatherLink_script,2013-08-29 07:00:00,
2013-08-29 03:05:00,58.1,-99.9,0.00,South,179,0.0,0.0,-99,0.00,NA,NA,-99.99,WeatherLink_script,2013-08-29 07:05:00,
2013-08-29 03:10:00,58.7,-99.9,0.00,SSE,157,0.0,0.0,-99,0.00,NA,NA,-99.99,WeatherLink_script,2013-08-29 07:10:00,
2013-08-29 03:15:00,59.3,-99.9,0.00,NNE,22,0.0,0.0,-99,0.00,NA,NA,-99.99,WeatherLink_script,2013-08-29 07:15:00,
2013-08-29 03:20:00,59.4,-99.9,0.00,SSE,161,0.0,0.0,-99,0.00,NA,NA,-99.99,WeatherLink_script,2013-08-29 07:20:00,
2013-08-29 03:25:00,59.6,-99.9,0.00,South,172,0.0,0.0,-99,0.00,NA,NA,-99.99,WeatherLink_script,2013-08-29 07:25:00,
2013-08-29 03:30:00,59.6,-99.9,0.00,SSE,156,0.0,0.0,-99,0.00,NA,NA,-99.99,WeatherLink_script,2013-08-29 07:30:00,
2013-08-29 03:35:00,59.8,-99.9,0.00,South,179,0.0,0.0,-99,0.00,NA,NA,-99.99,WeatherLink_script,2013-08-29 07:35:00,
2013-08-29 03:40:00,59.9,-99.9,0.00,SSE,167,0.0,0.0,-99,0.00,NA,NA,-99.99,WeatherLink_script,2013-08-29 07:40:00,
2013-08-29 03:45:00,60.1,-99.9,0.00,South,179,0.0,0.0,-99,0.00,NA,NA,-99.99,WeatherLink_script,2013-08-29 07:45:00,
2013-08-29 03:50:00,60.2,-99.9,0.00,South,179,0.0,0.0,-99,0.00,NA,NA,-99.99,WeatherLink_script,2013-08-29 07:50:00,
2013-08-29 03:55:00,60.1,-99.9,0.00,South,179,0.0,0.0,-99,0.00,NA,NA,-99.99,WeatherLink_script,2013-08-29 07:55:00,
2013-08-29 04:00:00,60.2,-99.9,0.00,South,183,0.0,0.0,-99,0.00,NA,NA,-99.99,WeatherLink_script,2013-08-29 08:00:00,
2013-08-29 04:05:00,60.2,-99.9,0.00,SSW,197,0.0,0.0,-99,0.00,NA,NA,-99.99,WeatherLink_script,2013-08-29 08:05:00,
2013-08-29 04:10:00,60.3,-99.9,0.00,South,178,0.0,0.0,-99,0.00,NA,NA,-99.99,WeatherLink_script,2013-08-29 08:10:00,
2013-08-29 04:15:00,60.3,-99.9,0.00,SSE,161,0.0,0.0,-99,0.00,NA,NA,-99.99,WeatherLink_script,2013-08-29 08:15:00,
2013-08-29 04:20:00,60.3,-99.9,0.00,South,177,0.0,0.0,-99,0.00,NA,NA,-99.99,WeatherLink_script,2013-08-29 08:20:00,
2013-08-29 04:25:00,60.4,-99.9,0.00,SSE,161,0.0,0.0,-99,0.00,NA,NA,-99.99,WeatherLink_script,2013-08-29 08:25:00,
2013-08-29 04:30:00,60.4,-99.9,0.00,SSE,156,0.0,0.0,-99,0.00,NA,NA,-99.99,WeatherLink_script,2013-08-29 08:30:00,
2013-08-29 04:35:00,60.4,-99.9,0.00,South,181,0.0,0.0,-99,0.00,NA,NA,-99.99,WeatherLink_script,2013-08-29 08:35:00,
2013-08-29 04:40:00,60.5,-99.9,0.00,SSW,195,0.0,0.0,-99,0.00,NA,NA,-99.99,WeatherLink_script,2013-08-29 08:40:00,
2013-08-29 04:45:00,60.4,-99.9,0.00,South,179,0.0,0.0,-99,0.00,NA,NA,-99.99,WeatherLink_script,2013-08-29 08:45:00,
2013-08-29 04:50:00,60.5,-99.9,0.00,South,184,0.0,0.0,-99,0.00,NA,NA,-99.99,WeatherLink_script,2013-08-29 08:50:00,
2013-08-29 04:55:00,60.5,-99.9,0.00,South,172,0.0,0.0,-99,0.00,NA,NA,-99.99,WeatherLink_script,2013-08-29 08:55:00,
2013-08-29 05:00:00,60.6,-99.9,0.00,South,179,0.0,0.0,-99,0.00,NA,NA,-99.99,WeatherLink_script,2013-08-29 09:00:00,
2013-08-29 05:05:00,60.6,-99.9,0.00,South,185,0.0,0.0,-99,0.00,NA,NA,-99.99,WeatherLink_script,2013-08-29 09:05:00,
2013-08-29 05:10:00,60.6,-99.9,0.00,South,174,0.0,0.0,-99,0.00,NA,NA,-99.99,WeatherLink_script,2013-08-29 09:10:00,
2013-08-29 05:15:00,60.7,-99.9,0.00,South,177,0.0,0.0,-99,0.00,NA,NA,-99.99,WeatherLink_script,2013-08-29 09:15:00,
2013-08-29 05:20:00,60.8,-99.9,0.00,South,175,0.0,0.0,-99,0.00,NA,NA,-99.99,WeatherLink_script,2013-08-29 09:20:00,
2013-08-29 05:25:00,60.8,-99.9,0.00,South,180,0.0,0.0,-99,0.00,NA,NA,-99.99,WeatherLink_script,2013-08-29 09:25:00,
2013-08-29 05:30:00,60.9,-99.9,0.00,ESE,121,0.0,0.0,-99,0.00,NA,NA,-99.99,WeatherLink_script,2013-08-29 09:30:00,
2013-08-29 05:35:00,60.9,-99.9,0.00,ESE,113,0.0,0.0,-99,0.00,NA,NA,-99.99,WeatherLink_script,2013-08-29 09:35:00,
2013-08-29 05:40:00,61.0,-99.9,0.00,NE,56,0.0,0.0,-99,0.00,NA,NA,-99.99,WeatherLink_script,2013-08-29 09:40:00,
2013-08-29 05:45:00,61.0,-99.9,0.00,NNE,13,0.0,0.0,-99,0.00,NA,NA,-99.99,WeatherLink_script,2013-08-29 09:45:00,
2013-08-29 05:50:00,61.1,-99.9,0.00,South,169,0.0,0.0,-99,0.00,NA,NA,-99.99,WeatherLink_script,2013-08-29 09:50:00,
2013-08-29 05:55:00,61.1,-99.9,0.00,North,1,0.0,0.0,-99,0.00,NA,NA,-99.99,WeatherLink_script,2013-08-29 09:55:00,
2013-08-29 06:00:00,61.1,-99.9,0.00,SE,134,0.0,0.0,-99,0.00,NA,NA,-99.99,WeatherLink_script,2013-08-29 10:00:00,
2013-08-29 06:05:00,61.2,-99.9,0.00,NNE,29,0.0,0.0,-99,0.00,NA,NA,-99.99,WeatherLink_script,2013-08-29 10:05:00,
2013-08-29 06:10:00,61.2,-99.9,0.00,WNW,288,0.0,0.0,-99,0.00,NA,NA,-99.99,WeatherLink_script,2013-08-29 10:10:00,
2013-08-29 06:15:00,61.1,-99.9,0.00,SE,136,0.0,0.0,-99,0.00,NA,NA,-99.99,WeatherLink_script,2013-08-29 10:15:00,
2013-08-29 06:20:00,60.9,-99.9,0.00,NE,47,0.1,0.0,-99,0.00,NA,NA,-99.99,WeatherLink_script,2013-08-29 10:20:00,
2013-08-29 06:25:00,60.6,-99.9,0.00,NNE,29,0.2,0.0,-99,0.00,NA,NA,-99.99,WeatherLink_script,2013-08-29 10:25:00,
2013-08-29 06:30:00,60.6,-99.9,0.00,North,9,0.1,0.0,-99,0.00,NA,NA,-99.99,WeatherLink_script,2013-08-29 10:30:00,
2013-08-29 06:35:00,60.7,-99.9,0.00,NNW,333,0.0,0.0,-99,0.00,NA,NA,-99.99,WeatherLink_script,2013-08-29 10:35:00,
2013-08-29 06:40:00,60.8,-99.9,0.00,SSE,165,0.0,0.0,-99,0.00,NA,NA,-99.99,WeatherLink_script,2013-08-29 10:40:00,
2013-08-29 06:45:00,60.9,-99.9,0.00,SSE,159,0.0,0.0,-99,0.00,NA,NA,-99.99,WeatherLink_script,2013-08-29 10:45:00,
2013-08-29 06:50:00,61.0,-99.9,0.00,SSE,156,0.0,0.0,-99,0.00,NA,NA,-99.99,WeatherLink_script,2013-08-29 10:50:00,
2013-08-29 06:55:00,61.0,-99.9,0.00,SSE,151,0.0,0.0,-99,0.00,NA,NA,-99.99,WeatherLink_script,2013-08-29 10:55:00,
2013-08-29 07:00:00,61.0,-99.9,0.00,North,349,0.0,0.0,-99,0.00,NA,NA,-99.99,WeatherLink_script,2013-08-29 11:00:00,
2013-08-29 07:05:00,60.9,-99.9,0.00,SSE,165,0.0,0.0,-99,0.00,NA,NA,-99.99,WeatherLink_script,2013-08-29 11:05:00,
2013-08-29 07:10:00,61.1,-99.9,0.00,SSE,160,0.0,0.0,-99,0.00,NA,NA,-99.99,WeatherLink_script,2013-08-29 11:10:00,
2013-08-29 07:15:00,61.1,-99.9,0.00,SSW,197,0.0,0.0,-99,0.00,NA,NA,-99.99,WeatherLink_script,2013-08-29 11:15:00,
2013-08-29 07:20:00,61.3,-99.9,0.00,East,80,0.0,0.0,-99,0.00,NA,NA,-99.99,WeatherLink_script,2013-08-29 11:20:00,
2013-08-29 07:25:00,61.5,-99.9,0.00,North,2,0.0,0.0,-99,0.00,NA,NA,-99.99,WeatherLink_script,2013-08-29 11:25:00,
2013-08-29 07:30:00,61.6,-99.9,0.00,WNW,298,0.0,0.0,-99,0.00,NA,NA,-99.99,WeatherLink_script,2013-08-29 11:30:00,
2013-08-29 07:35:00,61.6,-99.9,0.00,ENE,57,0.0,0.0,-99,0.00,NA,NA,-99.99,WeatherLink_script,2013-08-29 11:35:00,
2013-08-29 07:40:00,61.7,-99.9,0.00,East,83,0.0,0.0,-99,0.00,NA,NA,-99.99,WeatherLink_script,2013-08-29 11:40:00,
2013-08-29 07:45:00,61.7,-99.9,0.00,East,97,0.0,0.0,-99,0.00,NA,NA,-99.99,WeatherLink_script,2013-08-29 11:45:00,
2013-08-29 07:50:00,61.9,-99.9,0.00,NNE,13,0.0,0.0,-99,0.00,NA,NA,-99.99,WeatherLink_script,2013-08-29 11:50:00,
2013-08-29 07:55:00,61.8,-99.9,0.00,NNE,14,0.3,1.0,-99,0.00,NA,NA,-99.99,WeatherLink_script,2013-08-29 11:55:00,
2013-08-29 08:00:00,62.0,-99.9,0.00,NNE,29,0.7,1.0,-99,0.00,NA,NA,-99.99,WeatherLink_script,2013-08-29 12:00:00,
2013-08-29 08:05:00,62.0,-99.9,0.00,NNE,33,0.2,1.0,-99,0.00,NA,NA,-99.99,WeatherLink_script,2013-08-29 12:05:00,
2013-08-29 08:10:00,62.3,-99.9,0.00,NNE,13,0.4,1.0,-99,0.00,NA,NA,-99.99,WeatherLink_script,2013-08-29 12:10:00,
2013-08-29 08:15:00,62.4,-99.9,0.00,NNE,22,0.2,1.0,-99,0.00,NA,NA,-99.99,WeatherLink_script,2013-08-29 12:15:00,
2013-08-29 08:20:00,62.4,-99.9,0.00,NNE,17,0.2,1.0,-99,0.00,NA,NA,-99.99,WeatherLink_script,2013-08-29 12:20:00,
2013-08-29 08:25:00,62.7,-99.9,0.00,NNW,338,0.0,1.0,-99,0.00,NA,NA,-99.99,WeatherLink_script,2013-08-29 12:25:00,
2013-08-29 08:30:00,63.2,-99.9,0.00,North,357,0.0,1.0,-99,0.00,NA,NA,-99.99,WeatherLink_script,2013-08-29 12:30:00,
2013-08-29 08:35:00,63.7,-99.9,0.00,East,85,0.0,0.0,-99,0.00,NA,NA,-99.99,WeatherLink_script,2013-08-29 12:35:00,
2013-08-29 08:40:00,63.7,-99.9,0.00,NNE,26,0.3,1.0,-99,0.00,NA,NA,-99.99,WeatherLink_script,2013-08-29 12:40:00,
2013-08-29 08:45:00,63.7,-99.9,0.00,NNE,15,0.1,1.0,-99,0.00,NA,NA,-99.99,WeatherLink_script,2013-08-29 12:45:00,
2013-08-29 08:50:00,63.8,-99.9,0.00,ENE,74,0.0,1.0,-99,0.00,NA,NA,-99.99,WeatherLink_script,2013-08-29 12:50:00,
2013-08-29 08:55:00,64.7,-99.9,0.00,SSE,164,0.0,1.0,-99,0.00,NA,NA,-99.99,WeatherLink_script,2013-08-29 12:55:00,
2013-08-29 09:00:00,65.4,-99.9,0.00,South,191,0.0,0.0,-99,0.00,NA,NA,-99.99,WeatherLink_script,2013-08-29 13:00:00,
2013-08-29 09:05:00,65.4,-99.9,0.00,NNE,25,0.0,0.0,-99,0.00,NA,NA,-99.99,WeatherLink_script,2013-08-29 13:05:00,
2013-08-29 09:10:00,65.9,-99.9,0.00,West,281,0.0,0.0,-99,0.00,NA,NA,-99.99,WeatherLink_script,2013-08-29 13:10:00,
2013-08-29 09:15:00,66.4,-99.9,0.00,South,182,0.0,0.0,-99,0.00,NA,NA,-99.99,WeatherLink_script,2013-08-29 13:15:00,
2013-08-29 09:20:00,67.0,-99.9,0.00,SW,216,0.0,0.0,-99,0.00,NA,NA,-99.99,WeatherLink_script,2013-08-29 13:20:00,
2013-08-29 09:25:00,68.1,-99.9,0.00,SSE,165,0.0,0.0,-99,0.00,NA,NA,-99.99,WeatherLink_script,2013-08-29 13:25:00,
2013-08-29 09:30:00,68.3,-99.9,0.00,ESE,123,0.2,0.0,-99,0.00,NA,NA,-99.99,WeatherLink_script,2013-08-29 13:30:00,
2013-08-29 09:35:00,68.2,-99.9,0.00,South,183,0.0,0.0,-99,0.00,NA,NA,-99.99,WeatherLink_script,2013-08-29 13:35:00,
2013-08-29 09:40:00,68.5,-99.9,0.00,South,172,0.0,0.0,-99,0.00,NA,NA,-99.99,WeatherLink_script,2013-08-29 13:40:00,
2013-08-29 09:45:00,68.6,-99.9,0.00,SSE,159,0.1,0.0,-99,0.00,NA,NA,-99.99,WeatherLink_script,2013-08-29 13:45:00,
2013-08-29 09:50:00,69.0,-99.9,0.00,South,175,0.1,1.0,-99,0.00,NA,NA,-99.99,WeatherLink_script,2013-08-29 13:50:00,
2013-08-29 09:55:00,68.7,-99.9,0.00,South,180,0.0,1.0,-99,0.00,NA,NA,-99.99,WeatherLink_script,2013-08-29 13:55:00,
2013-08-29 10:00:00,68.4,-99.9,0.00,SE,146,0.4,1.0,-99,0.00,NA,NA,-99.99,WeatherLink_script,2013-08-29 14:00:00,
2013-08-29 10:05:00,68.0,-99.9,0.00,South,177,0.3,0.0,-99,0.00,NA,NA,-99.99,WeatherLink_script,2013-08-29 14:05:00,
2013-08-29 10:10:00,69.3,-99.9,0.00,SSE,155,0.4,0.0,-99,0.00,NA,NA,-99.99,WeatherLink_script,2013-08-29 14:10:00,
2013-08-29 10:15:00,69.9,-99.9,0.00,South,169,0.3,1.0,-99,0.00,NA,NA,-99.99,WeatherLink_script,2013-08-29 14:15:00,
2013-08-29 10:20:00,70.5,-99.9,0.00,South,178,0.7,1.0,-99,0.00,NA,NA,-99.99,WeatherLink_script,2013-08-29 14:20:00,
2013-08-29 10:25:00,70.6,-99.9,0.00,SE,146,0.8,1.0,-99,0.00,NA,NA,-99.99,WeatherLink_script,2013-08-29 14:25:00,
2013-08-29 10:30:00,71.6,-99.9,0.00,SSE,157,0.2,1.0,-99,0.00,NA,NA,-99.99,WeatherLink_script,2013-08-29 14:30:00,
2013-08-29 10:35:00,72.8,-99.9,0.00,SSE,156,0.8,1.0,-99,0.00,NA,NA,-99.99,WeatherLink_script,2013-08-29 14:35:00,
2013-08-29 10:40:00,71.1,-99.9,0.00,SSE,149,1.0,2.0,-99,0.00,NA,NA,-99.99,WeatherLink_script,2013-08-29 14:40:00,
2013-08-29 10:45:00,69.3,-99.9,0.00,SE,144,0.8,2.0,-99,0.00,NA,NA,-99.99,WeatherLink_script,2013-08-29 14:45:00,
2013-08-29 10:50:00,69.4,-99.9,0.00,SE,142,0.6,2.0,-99,0.00,NA,NA,-99.99,WeatherLink_script,2013-08-29 14:50:00,
2013-08-29 10:55:00,69.5,-99.9,0.00,SSE,158,0.0,2.0,-99,0.00,NA,NA,-99.99,WeatherLink_script,2013-08-29 14:55:00,
2013-08-29 11:00:00,68.2,-99.9,0.00,SSE,155,0.3,1.0,-99,0.00,NA,NA,-99.99,WeatherLink_script,2013-08-29 15:00:00,
2013-08-29 11:05:00,67.8,-99.9,0.00,South,177,0.2,1.0,-99,0.00,NA,NA,-99.99,WeatherLink_script,2013-08-29 15:05:00,
2013-08-29 11:10:00,67.5,-99.9,0.00,SSE,159,0.8,1.0,-99,0.00,NA,NA,-99.99,WeatherLink_script,2013-08-29 15:10:00,
2013-08-29 11:15:00,67.6,-99.9,0.00,South,173,0.7,1.0,-99,0.00,NA,NA,-99.99,WeatherLink_script,2013-08-29 15:15:00,
2013-08-29 11:20:00,67.7,-99.9,0.00,South,171,0.2,1.0,-99,0.00,NA,NA,-99.99,WeatherLink_script,2013-08-29 15:20:00,
2013-08-29 11:25:00,67.6,-99.9,0.00,South,178,0.9,1.0,-99,0.00,NA,NA,-99.99,WeatherLink_script,2013-08-29 15:25:00,
2013-08-29 11:30:00,67.9,-99.9,0.00,South,174,0.1,1.0,-99,0.00,NA,NA,-99.99,WeatherLink_script,2013-08-29 15:30:00,
2013-08-29 11:35:00,68.2,-99.9,0.00,SSE,154,0.1,1.0,-99,0.00,NA,NA,-99.99,WeatherLink_script,2013-08-29 15:35:00,
2013-08-29 11:40:00,68.5,-99.9,0.00,SE,146,0.6,1.0,-99,0.00,NA,NA,-99.99,WeatherLink_script,2013-08-29 15:40:00,
2013-08-29 11:45:00,70.0,-99.9,0.00,SSE,157,0.5,1.0,-99,0.00,NA,NA,-99.99,WeatherLink_script,2013-08-29 15:45:00,
2013-08-29 11:50:00,71.2,-99.9,0.00,SSE,150,0.7,1.0,-99,0.00,NA,NA,-99.99,WeatherLink_script,2013-08-29 15:50:00,
2013-08-29 11:55:00,72.3,-99.9,0.00,SSE,159,0.1,1.0,-99,0.00,NA,NA,-99.99,WeatherLink_script,2013-08-29 15:55:00,
2013-08-29 12:00:00,73.3,-99.9,0.00,SE,129,0.4,1.0,-99,0.00,NA,NA,-99.99,WeatherLink_script,2013-08-29 16:00:00,
2013-08-29 12:05:00,73.6,-99.9,0.00,SSE,150,0.6,1.0,-99,0.00,NA,NA,-99.99,WeatherLink_script,2013-08-29 16:05:00,
2013-08-29 12:10:00,74.5,-99.9,0.00,SSE,160,0.5,1.0,-99,0.00,NA,NA,-99.99,WeatherLink_script,2013-08-29 16:10:00,
2013-08-29 12:15:00,75.3,-99.9,0.00,SE,138,0.5,0.0,-99,0.00,NA,NA,-99.99,WeatherLink_script,2013-08-29 16:15:00,
2013-08-29 12:20:00,76.0,-99.9,0.00,SSE,151,0.3,1.0,-99,0.00,NA,NA,-99.99,WeatherLink_script,2013-08-29 16:20:00,
2013-08-29 12:25:00,75.9,-99.9,0.00,SE,135,0.3,1.0,-99,0.00,NA,NA,-99.99,WeatherLink_script,2013-08-29 16:25:00,
2013-08-29 12:30:00,76.9,-99.9,0.00,South,179,0.7,1.0,-99,0.00,NA,NA,-99.99,WeatherLink_script,2013-08-29 16:30:00,
2013-08-29 12:35:00,76.1,-99.9,0.00,SSE,148,0.4,2.0,-99,0.00,NA,NA,-99.99,WeatherLink_script,2013-08-29 16:35:00,
2013-08-29 12:40:00,78.0,-99.9,0.00,NE,37,0.8,2.0,-99,0.00,NA,NA,-99.99,WeatherLink_script,2013-08-29 16:40:00,
2013-08-29 12:45:00,76.7,-99.9,0.00,NE,51,0.3,2.0,-98,0.00,NA,NA,-99.99,WeatherLink_script,2013-08-29 16:45:00,
2013-08-29 12:50:00,75.5,-99.9,0.00,East,86,0.4,1.0,-99,0.00,NA,NA,-99.99,WeatherLink_script,2013-08-29 16:50:00,
2013-08-29 12:55:00,75.4,-99.9,0.00,SSW,192,0.1,1.0,-99,0.00,NA,NA,-99.99,WeatherLink_script,2013-08-29 16:55:00,
2013-08-29 13:00:00,74.5,-99.9,0.00,South,180,0.2,1.0,-99,0.00,NA,NA,-99.99,WeatherLink_script,2013-08-29 17:00:00,
2013-08-29 13:05:00,75.5,-99.9,0.00,SSE,167,0.0,1.0,-99,0.00,NA,NA,-99.99,WeatherLink_script,2013-08-29 17:05:00,
2013-08-29 13:10:00,75.8,-99.9,0.00,SSE,150,0.1,0.0,-99,0.00,NA,NA,-99.99,WeatherLink_script,2013-08-29 17:10:00,
2013-08-29 13:15:00,76.6,-99.9,0.00,SE,129,0.4,1.0,-99,0.00,NA,NA,-99.99,WeatherLink_script,2013-08-29 17:15:00,
2013-08-29 13:20:00,77.0,-99.9,0.00,East,93,0.6,1.0,-99,0.00,NA,NA,-99.99,WeatherLink_script,2013-08-29 17:20:00,
2013-08-29 13:25:00,75.8,-99.9,0.00,South,175,0.3,1.0,-99,0.00,NA,NA,-99.99,WeatherLink_script,2013-08-29 17:25:00,
2013-08-29 13:30:00,75.9,-99.9,0.00,South,171,0.2,1.0,-99,0.00,NA,NA,-99.99,WeatherLink_script,2013-08-29 17:30:00,
2013-08-29 13:35:00,77.8,-99.9,0.00,East,89,0.9,1.0,-99,0.00,NA,NA,-99.99,WeatherLink_script,2013-08-29 17:35:00,
2013-08-29 13:40:00,77.0,-99.9,0.00,SE,142,0.4,0.0,-99,0.00,NA,NA,-99.99,WeatherLink_script,2013-08-29 17:40:00,
2013-08-29 13:45:00,76.1,-99.9,0.00,SSE,149,0.8,1.0,-99,0.00,NA,NA,-99.99,WeatherLink_script,2013-08-29 17:45:00,
2013-08-29 13:50:00,76.4,-99.9,0.00,SSE,166,0.2,1.0,-99,0.00,NA,NA,-99.99,WeatherLink_script,2013-08-29 17:50:00,
2013-08-29 13:55:00,79.2,-99.9,0.00,SSE,155,0.2,1.0,-93,0.00,NA,NA,-99.99,WeatherLink_script,2013-08-29 17:55:00,
2013-08-29 14:00:00,77.3,-99.9,0.00,SSE,160,0.8,1.0,-99,0.00,NA,NA,-99.99,WeatherLink_script,2013-08-29 18:00:00,
2013-08-29 14:05:00,78.0,-99.9,0.00,SE,139,0.6,1.0,-99,0.00,NA,NA,-99.99,WeatherLink_script,2013-08-29 18:05:00,
2013-08-29 14:10:00,77.7,-99.9,0.00,SSE,152,0.8,1.0,-99,0.00,NA,NA,-99.99,WeatherLink_script,2013-08-29 18:10:00,
2013-08-29 14:15:00,76.9,-99.9,0.00,SSE,162,1.2,2.0,-99,0.00,NA,NA,-99.99,WeatherLink_script,2013-08-29 18:15:00,
2013-08-29 14:20:00,77.2,-99.9,0.00,WSW,254,1.2,2.0,-99,0.00,NA,NA,-99.99,WeatherLink_script,2013-08-29 18:20:00,
2013-08-29 14:25:00,79.9,-99.9,0.00,South,176,1.2,2.0,-99,0.00,NA,NA,-99.99,WeatherLink_script,2013-08-29 18:25:00,
2013-08-29 14:30:00,78.5,-99.9,0.00,SSW,202,1.1,2.0,-99,0.00,NA,NA,-99.99,WeatherLink_script,2013-08-29 18:30:00,
2013-08-29 14:35:00,69.9,-99.9,0.00,SSE,164,1.2,2.0,-99,0.00,NA,NA,-99.99,WeatherLink_script,2013-08-29 18:35:00,
2013-08-29 14:40:00,79.7,-99.9,0.00,SSE,152,1.2,1.2,-99,0.00,NA,NA,-99.99,WeatherLink_script,2013-08-29 18:40:00,
2013-08-29 14:45:00,81.5,-99.9,0.00,SSE,148,1.6,3.0,-99,0.00,NA,NA,-99.99,WeatherLink_script,2013-08-29 18:45:00,
2013-08-29 14:50:00,81.8,-99.9,0.00,SSE,167,1.3,3.0,-99,0.00,NA,NA,-99.99,WeatherLink_script,2013-08-29 18:50:00,
2013-08-29 14:55:00,81.5,-99.9,0.00,SSE,166,1.7,3.0,-99,0.00,NA,NA,-99.99,WeatherLink_script,2013-08-29 18:55:00,
2013-08-29 15:00:00,82.0,-99.9,0.00,SSE,154,1.3,3.0,-99,0.00,NA,NA,-99.99,WeatherLink_script,2013-08-29 19:00:00,
2013-08-29 15:05:00,81.8,-99.9,0.00,South,183,1.1,1.1,-99,0.00,NA,NA,-99.99,WeatherLink_script,2013-08-29 19:05:00,
2013-08-29 15:10:00,82.4,-99.9,0.00,South,179,0.8,1.0,-99,0.00,NA,NA,-99.99,WeatherLink_script,2013-08-29 19:10:00,
2013-08-29 15:15:00,82.6,-99.9,0.00,SSE,152,1.5,2.0,-99,0.00,NA,NA,-99.99,WeatherLink_script,2013-08-29 19:15:00,
2013-08-29 15:20:00,82.9,-99.9,0.00,SSE,160,1.0,2.0,-99,0.00,NA,NA,-99.99,WeatherLink_script,2013-08-29 19:20:00,
2013-08-29 15:25:00,82.8,-99.9,0.00,SSE,149,1.2,2.0,-99,0.00,NA,NA,-99.99,WeatherLink_script,2013-08-29 19:25:00,
2013-08-29 15:30:00,81.4,-99.9,0.00,South,176,1.1,2.0,-99,0.00,NA,NA,-99.99,WeatherLink_script,2013-08-29 19:30:00,
2013-08-29 15:35:00,82.8,-99.9,0.00,SSW,211,0.8,2.0,-85,0.00,NA,NA,-99.99,WeatherLink_script,2013-08-29 19:35:00,
2013-08-29 15:40:00,82.8,-99.9,0.00,SSE,158,0.7,0.0,-93,0.00,NA,NA,-99.99,WeatherLink_script,2013-08-29 19:40:00,
2013-08-29 15:45:00,72.5,-99.9,0.00,SSE,151,1.0,2.0,-78,0.00,NA,NA,-99.99,WeatherLink_script,2013-08-29 19:45:00,
2013-08-29 15:50:00,74.3,-99.9,0.00,SSE,153,1.0,2.0,-82,0.00,NA,NA,-99.99,WeatherLink_script,2013-08-29 19:50:00,
2013-08-29 15:55:00,78.2,-99.9,0.00,SE,135,1.1,2.0,-92,0.00,NA,NA,-99.99,WeatherLink_script,2013-08-29 19:55:00,
2013-08-29 16:00:00,79.0,-99.9,0.00,SSE,166,1.1,2.0,-94,0.00,NA,NA,-99.99,WeatherLink_script,2013-08-29 20:00:00,
2013-08-29 16:05:00,80.1,-99.9,0.00,SSE,164,0.7,2.0,-96,0.00,NA,NA,-99.99,WeatherLink_script,2013-08-29 20:05:00,
2013-08-29 16:10:00,81.2,-99.9,0.00,SSE,159,0.9,2.0,-99,0.00,NA,NA,-99.99,WeatherLink_script,2013-08-29 20:10:00,
2013-08-29 16:15:00,81.2,-99.9,0.00,SSE,152,0.9,1.0,-99,0.00,NA,NA,-99.99,WeatherLink_script,2013-08-29 20:15:00,
2013-08-29 16:23:00,81.1,-99.9,0.00,SSE,150,0.9,1.0,-99,0.00,NA,NA,-99.99,WeatherLink_script,2013-08-29 20:23:00,
2013-08-29 16:28:00,80.1,-99.9,0.00,SE,142,0.9,2.0,-100,0.00,NA,NA,-99.99,WeatherLink_script,2013-08-29 20:28:00,
2013-08-29 16:33:00,79.8,-99.9,0.00,SSE,150,1.1,2.0,-100,0.00,NA,NA,-99.99,WeatherLink_script,2013-08-29 20:33:00,
2013-08-29 16:38:00,79.7,-99.9,0.00,SE,145,0.8,2.0,-100,0.00,NA,NA,-99.99,WeatherLink_script,2013-08-29 20:38:00,
2013-08-29 16:43:00,79.4,-99.9,0.00,SSE,154,0.9,2.0,-100,0.00,NA,NA,-99.99,WeatherLink_script,2013-08-29 20:43:00,
2013-08-29 16:48:00,78.8,-99.9,0.00,SSE,156,1.0,2.0,-100,0.00,NA,NA,-99.99,WeatherLink_script,2013-08-29 20:48:00,
2013-08-29 16:53:00,79.1,-99.9,0.00,SSE,163,1.1,1.1,-100,0.00,NA,NA,-99.99,WeatherLink_script,2013-08-29 20:53:00,
2013-08-29 16:58:00,78.6,-99.9,0.00,SSE,163,1.2,2.0,-100,0.00,NA,NA,-99.99,WeatherLink_script,2013-08-29 20:58:00,
2013-08-29 17:03:00,78.3,-99.9,0.00,SSE,165,1.4,2.0,-100,0.00,NA,NA,-99.99,WeatherLink_script,2013-08-29 21:03:00,
2013-08-29 17:08:00,78.0,-99.9,0.00,SSE,166,1.2,2.0,-100,0.00,NA,NA,-99.99,WeatherLink_script,2013-08-29 21:08:00,
2013-08-29 17:13:00,76.7,-99.9,0.00,SSE,167,0.8,2.0,-100,0.00,NA,NA,-99.99,WeatherLink_script,2013-08-29 21:13:00,
2013-08-29 17:18:00,76.1,-99.9,0.00,SSE,158,0.2,0.0,-100,0.00,NA,NA,-99.99,WeatherLink_script,2013-08-29 21:18:00,
2013-08-29 17:23:00,76.0,-99.9,0.00,ENE,58,1.0,2.0,-100,0.00,NA,NA,-99.99,WeatherLink_script,2013-08-29 21:23:00,
2013-08-29 17:28:00,76.0,-99.9,0.00,NNW,329,1.6,2.0,-100,0.00,NA,NA,-99.99,WeatherLink_script,2013-08-29 21:28:00,
2013-08-29 17:33:00,75.6,-99.9,0.00,WNW,293,1.4,2.0,-100,0.00,NA,NA,-99.99,WeatherLink_script,2013-08-29 21:33:00,
2013-08-29 17:38:00,75.3,-99.9,0.00,SSW,208,1.6,2.0,-100,0.00,NA,NA,-99.99,WeatherLink_script,2013-08-29 21:38:00,
2013-08-29 17:43:00,74.8,-99.9,0.00,WNW,297,1.3,2.0,-100,0.00,NA,NA,-99.99,WeatherLink_script,2013-08-29 21:43:00,
2013-08-29 17:48:00,74.6,-99.9,0.00,South,177,1.4,3.0,-100,0.00,NA,NA,-99.99,WeatherLink_script,2013-08-29 21:48:00,
2013-08-29 17:53:00,73.1,-99.9,0.00,South,177,0.8,3.0,-100,0.00,NA,NA,-99.99,WeatherLink_script,2013-08-29 21:53:00,
2013-08-29 17:58:00,72.5,-99.9,0.00,South,182,0.5,3.0,-100,0.00,NA,NA,-99.99,WeatherLink_script,2013-08-29 21:58:00,
2013-08-29 18:03:00,71.8,-99.9,0.00,SSE,164,1.2,3.0,-100,0.00,NA,NA,-99.99,WeatherLink_script,2013-08-29 22:03:00,
2013-08-29 18:08:00,71.2,-99.9,0.00,SSE,164,1.0,1.0,-100,0.00,NA,NA,-99.99,WeatherLink_script,2013-08-29 22:08:00,
2013-08-29 18:13:00,71.5,-99.9,0.00,SSE,168,1.2,1.2,-100,0.00,NA,NA,-99.99,WeatherLink_script,2013-08-29 22:13:00,
2013-08-29 18:18:00,71.9,-99.9,0.00,SSE,159,0.9,1.0,-100,0.00,NA,NA,-99.99,WeatherLink_script,2013-08-29 22:18:00,
2013-08-29 18:23:00,71.6,-99.9,0.00,SSW,194,1.0,1.0,-100,0.00,NA,NA,-99.99,WeatherLink_script,2013-08-29 22:23:00,
2013-08-29 18:28:00,71.3,-99.9,0.00,South,178,0.4,2.0,-100,0.00,NA,NA,-99.99,WeatherLink_script,2013-08-29 22:28:00,
2013-08-29 18:33:00,70.9,-99.9,0.00,SSE,159,1.2,2.0,-100,0.00,NA,NA,-99.99,WeatherLink_script,2013-08-29 22:33:00,
2013-08-29 18:38:00,70.6,-99.9,0.00,SSE,156,0.8,2.0,-100,0.00,NA,NA,-99.99,WeatherLink_script,2013-08-29 22:38:00,
2013-08-29 18:43:00,70.3,-99.9,0.00,SSE,165,0.8,1.0,-100,0.00,NA,NA,-99.99,WeatherLink_script,2013-08-29 22:43:00,
2013-08-29 18:48:00,69.8,-99.9,0.00,SSE,158,0.9,1.0,-100,0.00,NA,NA,-99.99,WeatherLink_script,2013-08-29 22:48:00,
2013-08-29 18:53:00,69.6,-99.9,0.00,SSE,167,1.0,2.0,-99,0.00,NA,NA,-99.99,WeatherLink_script,2013-08-29 22:53:00,
2013-08-29 18:58:00,69.2,-99.9,0.00,South,169,0.3,2.0,-99,0.00,NA,NA,-99.99,WeatherLink_script,2013-08-29 22:58:00,
2013-08-29 19:03:00,68.5,-99.9,0.00,SSE,158,0.3,4.0,-99,0.00,NA,NA,-99.99,WeatherLink_script,2013-08-29 23:03:00,
2013-08-29 19:08:00,67.8,-99.9,0.00,South,183,0.0,4.0,-99,0.00,NA,NA,-99.99,WeatherLink_script,2013-08-29 23:08:00,
2013-08-29 19:13:00,67.6,-99.9,0.00,South,185,0.3,4.0,-99,0.00,NA,NA,-99.99,WeatherLink_script,2013-08-29 23:13:00,
2013-08-29 19:18:00,67.4,-99.9,0.00,SSE,162,0.0,0.0,-99,0.00,NA,NA,-99.99,WeatherLink_script,2013-08-29 23:18:00,
2013-08-29 19:23:00,67.2,-99.9,0.00,ESE,114,0.0,0.0,-99,0.00,NA,NA,-99.99,WeatherLink_script,2013-08-29 23:23:00,
2013-08-29 19:28:00,67.2,-99.9,0.00,NNW,328,0.0,0.0,-99,0.00,NA,NA,-99.99,WeatherLink_script,2013-08-29 23:28:00,
2013-08-29 19:33:00,67.1,-99.9,0.00,South,178,0.0,0.0,-99,0.00,NA,NA,-99.99,WeatherLink_script,2013-08-29 23:33:00,
2013-08-29 19:38:00,66.7,-99.9,0.00,South,179,0.0,0.0,-99,0.00,NA,NA,-99.99,WeatherLink_script,2013-08-29 23:38:00,
2013-08-29 19:43:00,66.3,-99.9,0.00,SSW,192,0.0,0.0,-99,0.00,NA,NA,-99.99,WeatherLink_script,2013-08-29 23:43:00,
2013-08-29 19:48:00,65.8,-99.9,0.00,South,174,0.0,0.0,-99,0.00,NA,NA,-99.99,WeatherLink_script,2013-08-29 23:48:00,
2013-08-29 19:53:00,65.5,-99.9,0.00,South,172,0.1,0.0,-99,0.00,NA,NA,-99.99,WeatherLink_script,2013-08-29 23:53:00,
2013-08-29 19:58:00,65.4,-99.9,0.00,South,169,0.0,0.0,-99,0.00,NA,NA,-99.99,WeatherLink_script,2013-08-29 23:58:00,
2013-08-29 20:03:00,65.4,-99.9,0.00,SSE,165,0.0,0.0,-99,0.00,NA,NA,-99.99,WeatherLink_script,2013-08-30 00:03:00,
2013-08-29 20:08:00,65.8,-99.9,0.00,South,184,0.0,0.0,-99,0.00,NA,NA,-99.99,WeatherLink_script,2013-08-30 00:08:00,
2013-08-29 20:13:00,65.9,-99.9,0.00,SSE,162,0.1,1.0,-99,0.00,NA,NA,-99.99,WeatherLink_script,2013-08-30 00:13:00,
2013-08-29 20:18:00,65.7,-99.9,0.00,SSE,158,0.0,1.0,-99,0.00,NA,NA,-99.99,WeatherLink_script,2013-08-30 00:18:00,
2013-08-29 20:23:00,65.4,-99.9,0.00,South,174,0.4,1.0,-99,0.00,NA,NA,-99.99,WeatherLink_script,2013-08-30 00:23:00,
2013-08-29 20:28:00,65.6,-99.9,0.00,SSE,161,0.0,0.0,-99,0.00,NA,NA,-99.99,WeatherLink_script,2013-08-30 00:28:00,
2013-08-29 20:33:00,65.2,-99.9,0.00,SSE,159,0.0,0.0,-99,0.00,NA,NA,-99.99,WeatherLink_script,2013-08-30 00:33:00,
2013-08-29 20:38:00,64.9,-99.9,0.00,South,179,0.0,0.0,-99,0.00,NA,NA,-99.99,WeatherLink_script,2013-08-30 00:38:00,
2013-08-29 20:43:00,64.8,-99.9,0.00,SSW,192,0.0,0.0,-99,0.00,NA,NA,-99.99,WeatherLink_script,2013-08-30 00:43:00,
2013-08-29 20:48:00,64.8,-99.9,0.00,North,5,0.7,1.0,-99,0.00,NA,NA,-99.99,WeatherLink_script,2013-08-30 00:48:00,
2013-08-29 20:53:00,64.9,-99.9,0.00,North,0,1.2,1.2,-99,0.00,NA,NA,-99.99,WeatherLink_script,2013-08-30 00:53:00,
2013-08-29 20:58:00,64.9,-99.9,0.00,WSW,258,0.2,1.0,-99,0.00,NA,NA,-99.99,WeatherLink_script,2013-08-30 00:58:00,
2013-08-29 21:03:00,64.9,-99.9,0.00,South,185,0.1,1.0,-99,0.00,NA,NA,-99.99,WeatherLink_script,2013-08-30 01:03:00,
2013-08-29 21:08:00,64.3,-99.9,0.00,SSE,156,0.0,0.0,-99,0.00,NA,NA,-99.99,WeatherLink_script,2013-08-30 01:08:00,
2013-08-29 21:13:00,64.0,-99.9,0.00,SE,143,0.0,1.0,-99,0.00,NA,NA,-99.99,WeatherLink_script,2013-08-30 01:13:00,
2013-08-29 21:18:00,63.9,-99.9,0.00,South,180,0.0,1.0,-99,0.00,NA,NA,-99.99,WeatherLink_script,2013-08-30 01:18:00,
2013-08-29 21:23:00,64.0,-99.9,0.00,South,182,0.5,1.0,-99,0.00,NA,NA,-99.99,WeatherLink_script,2013-08-30 01:23:00,
2013-08-29 21:28:00,64.2,-99.9,0.00,South,170,0.2,1.0,-99,0.00,NA,NA,-99.99,WeatherLink_script,2013-08-30 01:28:00,
2013-08-29 21:33:00,64.1,-99.9,0.00,South,176,0.0,1.0,-99,0.00,NA,NA,-99.99,WeatherLink_script,2013-08-30 01:33:00,
2013-08-29 21:38:00,64.0,-99.9,0.00,South,180,0.0,1.0,-99,0.00,NA,NA,-99.99,WeatherLink_script,2013-08-30 01:38:00,
2013-08-29 21:43:00,64.0,-99.9,0.00,SSW,199,0.0,0.0,-99,0.00,NA,NA,-99.99,WeatherLink_script,2013-08-30 01:43:00,
2013-08-29 21:48:00,64.0,-99.9,0.00,SSE,154,0.0,0.0,-99,0.00,NA,NA,-99.99,WeatherLink_script,2013-08-30 01:48:00,
2013-08-29 21:53:00,64.0,-99.9,0.00,South,173,0.0,0.0,-99,0.00,NA,NA,-99.99,WeatherLink_script,2013-08-30 01:53:00,
2013-08-29 21:58:00,64.1,-99.9,0.00,South,182,0.0,0.0,-99,0.00,NA,NA,-99.99,WeatherLink_script,2013-08-30 01:58:00,
2013-08-29 22:03:00,64.1,-99.9,0.00,South,180,0.0,0.0,-99,0.00,NA,NA,-99.99,WeatherLink_script,2013-08-30 02:03:00,
2013-08-29 22:08:00,64.1,-99.9,0.00,NNE,24,0.0,0.0,-99,0.00,NA,NA,-99.99,WeatherLink_script,2013-08-30 02:08:00,
2013-08-29 22:13:00,64.0,-99.9,0.00,NNE,23,0.0,0.0,-99,0.00,NA,NA,-99.99,WeatherLink_script,2013-08-30 02:13:00,
2013-08-29 22:18:00,64.1,-99.9,0.00,South,185,0.0,0.0,-99,0.00,NA,NA,-99.99,WeatherLink_script,2013-08-30 02:18:00,
2013-08-29 22:23:00,64.0,-99.9,0.00,South,189,0.0,0.0,-99,0.00,NA,NA,-99.99,WeatherLink_script,2013-08-30 02:23:00,
2013-08-29 22:28:00,64.0,-99.9,0.00,South,179,0.0,0.0,-99,0.00,NA,NA,-99.99,WeatherLink_script,2013-08-30 02:28:00,
2013-08-29 22:33:00,64.0,-99.9,0.00,South,173,0.0,0.0,-99,0.00,NA,NA,-99.99,WeatherLink_script,2013-08-30 02:33:00,
2013-08-29 22:38:00,63.9,-99.9,0.00,South,182,0.0,0.0,-99,0.00,NA,NA,-99.99,WeatherLink_script,2013-08-30 02:38:00,
2013-08-29 22:43:00,63.9,-99.9,0.00,South,171,0.0,0.0,-99,0.00,NA,NA,-99.99,WeatherLink_script,2013-08-30 02:43:00,
2013-08-29 22:48:00,63.8,-99.9,0.00,South,181,0.0,0.0,-99,0.00,NA,NA,-99.99,WeatherLink_script,2013-08-30 02:48:00,
2013-08-29 22:53:00,63.8,-99.9,0.00,South,179,0.0,0.0,-99,0.00,NA,NA,-99.99,WeatherLink_script,2013-08-30 02:53:00,
2013-08-29 22:58:00,63.8,-99.9,0.00,South,179,0.0,0.0,-99,0.00,NA,NA,-99.99,WeatherLink_script,2013-08-30 02:58:00,
2013-08-29 23:03:00,63.8,-99.9,0.00,SSE,159,0.0,0.0,-99,0.00,NA,NA,-99.99,WeatherLink_script,2013-08-30 03:03:00,
2013-08-29 23:08:00,63.8,-99.9,0.00,South,180,0.0,0.0,-99,0.00,NA,NA,-99.99,WeatherLink_script,2013-08-30 03:08:00,
2013-08-29 23:13:00,63.9,-99.9,0.00,South,177,0.0,0.0,-99,0.00,NA,NA,-99.99,WeatherLink_script,2013-08-30 03:13:00,
2013-08-29 23:18:00,63.9,-99.9,0.00,South,188,0.0,0.0,-99,0.00,NA,NA,-99.99,WeatherLink_script,2013-08-30 03:18:00,
2013-08-29 23:23:00,63.8,-99.9,0.00,South,181,0.0,0.0,-99,0.00,NA,NA,-99.99,WeatherLink_script,2013-08-30 03:23:00,
2013-08-29 23:28:00,63.8,-99.9,0.00,South,180,0.0,0.0,-99,0.00,NA,NA,-99.99,WeatherLink_script,2013-08-30 03:28:00,
2013-08-29 23:33:00,63.8,-99.9,0.00,South,180,0.0,0.0,-99,0.00,NA,NA,-99.99,WeatherLink_script,2013-08-30 03:33:00,
2013-08-29 23:38:00,63.8,-99.9,0.00,South,180,0.0,0.0,-99,0.00,NA,NA,-99.99,WeatherLink_script,2013-08-30 03:38:00,
2013-08-29 23:43:00,63.8,-99.9,0.00,South,176,0.0,0.0,-99,0.00,NA,NA,-99.99,WeatherLink_script,2013-08-30 03:43:00,
2013-08-29 23:48:00,63.8,-99.9,0.00,NE,54,0.0,0.0,-99,0.00,NA,NA,-99.99,WeatherLink_script,2013-08-30 03:48:00,
2013-08-29 23:53:00,63.8,-99.9,0.00,South,180,0.0,0.0,-99,0.00,NA,NA,-99.99,WeatherLink_script,2013-08-30 03:53:00,
2013-08-29 23:58:00,63.8,-99.9,0.00,South,180,0.0,0.0,-99,0.00,NA,NA,-99.99,WeatherLink_script,2013-08-30 03:58:00,